sat.trackr.live / text

‹ back to catalog

STARLINK-35864

NORAD 67081 · 2025-298G

PAYLOAD ACTIVE UNKNOWN

§ Identity

Operator
Country
US
Launch date
2025-12-14
Launch site
AFWTR
Launch vehicle
Mass (kg)
RCS (m²)

Purposes: comms

External: N2YO · Heavens-Above · Gunter

§ Orbital elements

Epoch: 2026-09-19T21:58:15.694752Z

Period
96.11 min
Inclination
69.9985°
Eccentricity
0.0003211
Mean motion
14.98337846 rev/d
Perigee alt
569.8 km
Apogee alt
574.3 km
Semi-major
6,950.2 km
B*
9.4013e-5
RAAN
244.6199°
Arg perigee
269.4175°
Mean anomaly
90.6616°
Rev number
4,231

§ Raw data

STARLINK-358641 67081U 25298G   26262.91545943  .00001029  00000+0  94013-4 0  99982 67081  69.9985 244.6199 0003211 269.4175  90.6616 14.98337846 42317

JSON: /api/v1/satellites/67081 · /tle

For live sub-satellite position, see the globe view (requires WebGL).

§ Visibility from observer

Set your observer location to see the next 7 days of passes ≥ 10°. The values pass through the URL so the page stays shareable.

No JS? Fill the form by hand. The geolocation button needs JavaScript.